Location: Bartshausen
(51.8454°N, 9.8167°E)
Time: 09:21:42
(UTC+00:00)

Helios 1A Rocket - Pass Details

Date: 08 November 2025
Orbit: 439 x 451 km, 98.3° (Epoch: 11 December)

Event Time Altitude Azimuth Distance (km) Brightness Sun altitude
Rises 03:54:46 0° 147° (SSE) 2,447 6.5 -23.7°
Reaches altitude 10° 03:56:51 10° 141° (SE) 1,576 5.6 -23.4°
Maximum altitude 04:00:03 42° 69° (ENE) 650 3.6 -22.9°
Enters shadow 04:01:35 25° 13° (NNE) 948 4.1 -22.7°
